Lexington Weather

Lexington, Massachusetts, USA

44°F
4/22/2024 8:50am 
  • Lexington Conditions: Clear
  • Temperature: 43.5°F / 6.4°CWarmer 3.6°F than last hour.
  • Dew Point: 27.1°FDecreased 2.0°Fsince last hour.
  • Relative Humidity: 52%Decreased 13.0% since last hour.
  • Wind: Calm, 10-min avg: Calm, gust: None
  • Barometer: 29.96 in Steady
  • Visibility: 10 miles
  • Rain Today: 0.00 in
  •   

Regional Weather Roundup
for Boston, MA

        
000
ASUS41 KBOX 171010
RWRBOX

REGIONAL WEATHER ROUNDUP
NATIONAL WEATHER SERVICE BOSTON/NORTON MA
600 AM EDT WED APR 17 2024

NOTE:  "FAIR" INDICATES FEW OR NO CLOUDS BELOW 12,000 FEET WITH NO 
SIGNIFICANT WEATHER AND/OR OBSTRUCTIONS TO VISIBILITY.

MAZALL-171100-
EASTERN MASSACHUSETTS
  
CITY           SKY/WX    TMP DP  RH WIND       PRES   REMARKS
BOSTON         PTCLDY    43  34  70 NE5       30.24R                  
BEVERLY        CLEAR     41  30  65 NE3       30.23R                  
LAWRENCE       CLEAR     40  29  64 NE3       30.25R                  
BEDFORD        CLEAR     41  34  76 E5        30.22R                  
NORWOOD        CLEAR     46  35  65 NE5       30.23R                  
MARSHFIELD     CLEAR     45  36  70 N3        30.23R                  
PLYMOUTH       CLEAR     44  35  70 NE9       30.21R                  
TAUNTON        CLEAR     40  33  76 NE3       30.23R                  
NEW BEDFORD    CLEAR     44  34  67 NE5       30.22R                  
$$

MAZALL-171100-
CAPE COD AND THE ISLANDS
  
CITY           SKY/WX    TMP DP  RH WIND       PRES   REMARKS
FALMOUTH       CLEAR     43  34  70 N6        30.21R                  
HYANNIS        CLEAR     43  34  70 NE5       30.20R                  
CHATHAM        CLEAR     45  37  73 NE8       30.21R                  
PROVINCETOWN   CLEAR     43  39  86 NE9       30.23R                  
NANTUCKET      CLEAR     44  36  73 NE8       30.20R                  
MARTHAS VNYRD  CLEAR     44  35  70 NE5       30.21R                  
$$
 
MAZALL-171100-
CENTRAL AND WESTERN MASSACHUSETTS
  
CITY           SKY/WX    TMP DP  RH WIND       PRES   REMARKS
WORCESTER      CLEAR     43  29  57 NE5       30.20R                  
FITCHBURG      CLEAR     35  30  82 CALM      30.24R                  
ORANGE         CLEAR     32  31  96 CALM      30.23R                  
SPRINGFIELD    PTCLDY    36  33  91 NE3       30.19S                  
WESTFIELD      PTCLDY    37  33  85 CALM      30.21S                  
NORTH ADAMS    CLEAR     32  29  88 CALM      30.21S                  
PITTSFIELD     CLEAR     33  29  85 CALM      30.18S                  
$$
 
RIZALL-171100-
RHODE ISLAND
  
CITY           SKY/WX    TMP DP  RH WIND       PRES   REMARKS
PROVIDENCE     PTCLDY    42  34  73 NE6       30.23R                  
NEWPORT        CLEAR     43  33  68 NE6       30.21R                  
BLOCK ISLAND   CLEAR     44  39  82 NE8       30.21R                  
SMITHFIELD     CLEAR     42  34  73 E3        30.23R                  
WESTERLY       CLEAR     41  36  82 NE3       30.21R                  
$$
 
CTZALL-171100-
CONNECTICUT
  
CITY           SKY/WX    TMP DP  RH WIND       PRES   REMARKS
BRADLEY INTL   PTCLDY    44  33  65 N6        30.21R                  
HARTFORD       CLEAR     42  36  79 CALM      30.20S                  
PLAINVILLE     FAIR      41  36  81 CALM      30.20R                  
BRIDGEPORT     CLEAR     49  36  61 NE7       30.18R                  
DANBURY        CLEAR     38  33  82 SW3       30.19S                  
GROTON         CLEAR     46  37  71 NE9       30.20R                  
NEW HAVEN      CLEAR     44  34  67 NE6       30.18S                  
CHESTER        CLEAR     48  32  53 NE5       30.19S                  
MERIDEN        CLEAR     43  33  68 CALM      30.20R                  
WILLIMANTIC    CLEAR     36  34  92 NE3       30.21S                  
OXFORD         CLEAR     46  32  58 E6        30.19R                  
$$

MEZ002-015-021-024-NHZ003-005-008-011-012-014-VTZ005-008-171100-
NORTHERN NEW ENGLAND
  
CITY           SKY/WX    TMP DP  RH WIND       PRES   REMARKS
PORTLAND ME    PTCLDY    36  24  62 N8        30.22S WCI  30          
BANGOR ME      MOCLDY    38  25  59 NW6       30.20R                  
CONCORD NH     CLEAR     31  30  96 S5        30.23R WCI  26          
MANCHESTER NH  PTCLDY    38  31  76 CALM      30.22R                  
NASHUA NH      CLEAR     37  37 100 W3        30.25R                  
PORTSMOUTH NH  PTCLDY    40  23  52 CALM      30.23R                  
JAFFREY NH     CLEAR     33  29  85 CALM      30.21R                  
KEENE NH       CLEAR     31  30  96 SW6       30.23R WCI  25          
BURLINGTON VT  PTCLDY    34  27  75 CALM      30.26R                  
MT. WASHINGTON MOCLDY    19  14  79 NW38G46     N/A  WCI  -1          
$$

NYZ052-076-171100-
EASTERN NEW YORK
  
CITY           SKY/WX    TMP DP  RH WIND       PRES   REMARKS
ALBANY         PTCLDY    41  28  60 N8        30.23R                  
NEW YORK CITY  PTCLDY    50  42  74 NE7       30.17R                  
$$
 
ANZALL-171100-
MARINE OBSERVATIONS
  
STATION/POSITION TIME  TEMP    WIND        PRES    VSBY  WAVE
                       AIR SEA DIR/SP/G                  HT/PER
                 (UTC) (F)     (DEG/KT/KT) (MB)    (MI)  (FT/S)
BOSTON BUOY      0950   45      30/ 14/ 16 1023.3R         4/ 9
BUZZARDS BAY     0900   47      50/ 14/ 15 1022.9R
NANTUCKET SOUND  0950   47 47   50/ 12/ 16 1022.5R         2/ 4
MASS BAY-STELLWA 0804   45 45   40/ 17/ 21 1022.6R  1 7/8  3/ 8
ISLE OF SHOALS   0900   42      20/ 13/ 15 1022.4R
S OF BLOCK IS    0956      45                N/A           3/ 8
$$

......................KEY.........................
  SKY/WX - SKY CONDITION/PRESENT WEATHER
  TMP    - TEMPERATURE IN FAHRENHEIT
  DWPT   - DEWPOINT IN FAHRENHEIT
  RH     - RELATIVE HUMIDITY IN PERCENT
  WIND   - DIRECTION AND SPEED IN MPH
  PRES   - MEAN SEA LEVEL PRESSURE IN INCHES OF HG
  WCI    - WIND CHILL INDEX
  VSB    - VISIBILITY IN MILES
  HX     - HEAT INDEX
  TC     - TEMPERATURE IN CELSIUS
  VRB    - VARIABLE WIND DIRECTION
  N/A    - NOT AVAILABLE
  
      

Other recent Regional Weather Roundups

Mon Apr 22, 8:10am EDT

Mon Apr 22, 7:10am EDT

Mon Apr 22, 6:10am EDT

Mon Apr 22, 5:10am EDT

Mon Apr 22, 4:10am EDT

Mon Apr 22, 3:10am EDT

Mon Apr 22, 2:10am EDT

Mon Apr 22, 1:10am EDT

Mon Apr 22, 12:10am EDT

Sun Apr 21, 11:10pm EDT

Sun Apr 21, 10:10pm EDT

Sun Apr 21, 9:10pm EDT

Sun Apr 21, 8:10pm EDT

Sun Apr 21, 7:10pm EDT

Sun Apr 21, 6:10pm EDT

Sun Apr 21, 5:10pm EDT

Sun Apr 21, 4:10pm EDT

Sun Apr 21, 3:10pm EDT

Sun Apr 21, 2:10pm EDT

Sun Apr 21, 1:10pm EDT

Sun Apr 21, 12:10pm EDT

Sun Apr 21, 11:10am EDT

Sun Apr 21, 10:10am EDT

Sun Apr 21, 9:10am EDT

Sun Apr 21, 8:10am EDT

Sun Apr 21, 7:10am EDT

Sun Apr 21, 6:10am EDT

Sun Apr 21, 5:10am EDT

Sun Apr 21, 4:10am EDT

Sun Apr 21, 3:10am EDT

Sun Apr 21, 2:10am EDT

Sun Apr 21, 1:10am EDT

Sun Apr 21, 12:10am EDT

Sat Apr 20, 11:10pm EDT

Sat Apr 20, 10:10pm EDT

Sat Apr 20, 9:10pm EDT

Sat Apr 20, 8:10pm EDT

Sat Apr 20, 7:10pm EDT

Sat Apr 20, 6:10pm EDT

Sat Apr 20, 5:10pm EDT

Sat Apr 20, 4:10pm EDT

Sat Apr 20, 3:10pm EDT

Sat Apr 20, 2:10pm EDT

Sat Apr 20, 1:10pm EDT

Sat Apr 20, 12:10pm EDT

Sat Apr 20, 11:10am EDT

Sat Apr 20, 10:10am EDT

Sat Apr 20, 9:10am EDT

Sat Apr 20, 8:10am EDT

Sat Apr 20, 7:10am EDT

Sat Apr 20, 6:10am EDT

Sat Apr 20, 5:10am EDT

Sat Apr 20, 4:10am EDT

Sat Apr 20, 3:10am EDT

Sat Apr 20, 2:10am EDT

Sat Apr 20, 1:10am EDT

Sat Apr 20, 12:10am EDT

Fri Apr 19, 11:10pm EDT

Fri Apr 19, 10:10pm EDT

Fri Apr 19, 9:10pm EDT

Fri Apr 19, 8:10pm EDT

Fri Apr 19, 7:10pm EDT

Fri Apr 19, 6:10pm EDT

Fri Apr 19, 5:10pm EDT

Fri Apr 19, 4:10pm EDT

Fri Apr 19, 3:10pm EDT

Fri Apr 19, 2:10pm EDT

Fri Apr 19, 1:10pm EDT

Fri Apr 19, 12:10pm EDT

Fri Apr 19, 11:10am EDT

Fri Apr 19, 10:10am EDT

Fri Apr 19, 9:10am EDT

Fri Apr 19, 8:10am EDT

Fri Apr 19, 7:10am EDT

Fri Apr 19, 6:10am EDT

Fri Apr 19, 5:10am EDT

Fri Apr 19, 4:10am EDT

Fri Apr 19, 3:10am EDT

Fri Apr 19, 2:10am EDT

Fri Apr 19, 1:10am EDT

Fri Apr 19, 12:10am EDT

Thu Apr 18, 11:10pm EDT

Thu Apr 18, 10:10pm EDT

Thu Apr 18, 9:10pm EDT

Thu Apr 18, 8:10pm EDT

Thu Apr 18, 7:10pm EDT

Thu Apr 18, 6:10pm EDT

Thu Apr 18, 5:10pm EDT

Thu Apr 18, 4:10pm EDT

Thu Apr 18, 3:10pm EDT

Thu Apr 18, 2:10pm EDT

Thu Apr 18, 1:10pm EDT

Thu Apr 18, 12:10pm EDT

Thu Apr 18, 11:10am EDT

Thu Apr 18, 10:10am EDT

Thu Apr 18, 9:10am EDT

Thu Apr 18, 8:10am EDT

Thu Apr 18, 7:10am EDT

Thu Apr 18, 6:10am EDT

Thu Apr 18, 5:10am EDT

Thu Apr 18, 4:10am EDT

Thu Apr 18, 3:10am EDT

Thu Apr 18, 2:10am EDT

Thu Apr 18, 1:10am EDT

Thu Apr 18, 12:10am EDT

Wed Apr 17, 11:10pm EDT

Wed Apr 17, 10:10pm EDT

Wed Apr 17, 9:10pm EDT

Wed Apr 17, 8:10pm EDT

Wed Apr 17, 7:10pm EDT

Wed Apr 17, 6:10pm EDT

Wed Apr 17, 5:10pm EDT

Wed Apr 17, 4:10pm EDT

Wed Apr 17, 3:10pm EDT

Wed Apr 17, 2:10pm EDT

Wed Apr 17, 1:10pm EDT

Wed Apr 17, 12:10pm EDT

Wed Apr 17, 11:10am EDT

Wed Apr 17, 10:10am EDT

Wed Apr 17, 9:10am EDT

Wed Apr 17, 8:10am EDT

Wed Apr 17, 7:10am EDT

Wed Apr 17, 5:10am EDT

Wed Apr 17, 4:10am EDT

Wed Apr 17, 3:10am EDT

Wed Apr 17, 2:10am EDT

Wed Apr 17, 1:10am EDT

Wed Apr 17, 12:10am EDT

Tue Apr 16, 11:10pm EDT

Tue Apr 16, 10:10pm EDT

Tue Apr 16, 9:10pm EDT

Tue Apr 16, 8:10pm EDT

Tue Apr 16, 7:10pm EDT

Tue Apr 16, 6:10pm EDT

Tue Apr 16, 5:10pm EDT

Tue Apr 16, 4:10pm EDT

Tue Apr 16, 3:10pm EDT

Tue Apr 16, 2:10pm EDT

Tue Apr 16, 1:10pm EDT

Tue Apr 16, 12:10pm EDT

Tue Apr 16, 11:10am EDT

Tue Apr 16, 10:10am EDT

Tue Apr 16, 9:10am EDT

Tue Apr 16, 8:10am EDT

Tue Apr 16, 7:10am EDT

Tue Apr 16, 6:10am EDT

Tue Apr 16, 5:10am EDT

Tue Apr 16, 4:10am EDT

Tue Apr 16, 3:10am EDT

Tue Apr 16, 2:10am EDT

Tue Apr 16, 1:10am EDT

Tue Apr 16, 12:10am EDT

Mon Apr 15, 11:10pm EDT

Mon Apr 15, 10:10pm EDT

Mon Apr 15, 9:10pm EDT

Mon Apr 15, 8:10pm EDT

Mon Apr 15, 7:10pm EDT

Mon Apr 15, 6:10pm EDT

Mon Apr 15, 5:10pm EDT

Mon Apr 15, 4:10pm EDT

Mon Apr 15, 3:10pm EDT

Mon Apr 15, 2:10pm EDT

Mon Apr 15, 1:10pm EDT

Mon Apr 15, 12:10pm EDT

Mon Apr 15, 11:10am EDT

Mon Apr 15, 10:10am EDT

Mon Apr 15, 9:10am EDT